FLOCK 3R-11 (43725 NORAD) Tracking and Keplerian Element Data

This shows tracking and keplerian element data for the satellite.

Feedback or suggestion? Click here.




ElementValue
Catalog43725
NameFLOCK 3R-11
Epoch Orbit457
Epoch Day363.21006843
Epoch Year2018
RAAN68.2264
Inclination97.4815
Eccentricity0.0017486
Argument of Perigee214.046
Mean Anonmoly230.8566
Mean Motion15.26000057
Decay Rate6.99E-06
L11 43725U 18096G 18363.21006843 .00000699 00000-0 29988-4 0 9994
L22 43725 97.4815 68.2264 0017486 214.0460 230.8566 15.26000057 4570

Live tracking and technical data element details for FLOCK 3R-11 (NORAD 43725). FLOCK 3R-11 can be tracked NOW for your location showing map with azimuth and elevation plus other details from your city location.

Track the satellite on the map from your city or location and see movement details for azimuth, elevation, latitude, longitude, range, height, and movement on the map or in text.







IsCatalogInMostPopularTable: catalog: 43725, numindb: 58
Update: records affected: 1



GetName: 43725 FLOCK 3R-11

Hit Count: updated at: Mon, 27 May 2019 03:53:43 GMT